Satellite: AEROCUB3
Catalog number: 35005
Epoch time:      10146.90539926
Element set:    0340
Inclination:      040.4752 deg
RA of node:       333.0910 deg
Eccentricity:    0.0018867
Arg of perigee:   241.8789 deg
Mean anomaly:     118.0123 deg
Mean motion:   15.50220603 rev/day
Decay rate:     2.1522e-04 rev/day^2
Epoch rev:           05744
Checksum:              267

Satellite: DRAGNSAT
Catalog number: 35690
Epoch time:      10076.22711312
Element set:     316
Inclination:      051.6170 deg
RA of node:       315.4586 deg
Eccentricity:    0.0004999
Arg of perigee:   310.9891 deg
Mean anomaly:     057.3269 deg
Mean motion:   16.42150010 rev/day
Decay rate:   5.715194e-02 rev/day^2
Epoch rev:            3656
Checksum:              289

Satellite: POLLUX
Catalog number: 35693
Epoch time:      10087.99866888
Element set:     352
Inclination:      051.6099 deg
RA of node:       254.5746 deg
Eccentricity:    0.0006270
Arg of perigee:   294.4866 deg
Mean anomaly:     097.5899 deg
Mean motion:   16.52338462 rev/day
Decay rate:  2.3496735e-01 rev/day^2
Epoch rev:            3839
Checksum:              384

Satellite: CASTOR
Catalog number: 35694
Epoch time:      10147.85887669
Element set:     412
Inclination:      051.6371 deg
RA of node:       308.7625 deg
Eccentricity:    0.0001524
Arg of perigee:   147.0596 deg
Mean anomaly:     213.0510 deg
Mean motion:   15.99367372 rev/day
Decay rate:     6.4519e-04 rev/day^2
Epoch rev:            4780
Checksum:              317

Satellite: METEOR-M
Catalog number: 35865
Epoch time:      10147.86724268
Element set:     330
Inclination:      098.7595 deg
RA of node:       201.8094 deg
Eccentricity:    0.0003437
Arg of perigee:   066.6524 deg
Mean anomaly:     293.4996 deg
Mean motion:   14.21830301 rev/day
Decay rate:       1.76e-06 rev/day^2
Epoch rev:            3583
Checksum:              310

Satellite: RS-38
Catalog number: 35869
Epoch time:      10147.70019209
Element set:     338
Inclination:      098.7586 deg
RA of node:       201.6742 deg
Eccentricity:    0.0005532
Arg of perigee:   066.9585 deg
Mean anomaly:     293.2137 deg
Mean motion:   14.21982193 rev/day
Decay rate:       1.77e-06 rev/day^2
Epoch rev:            3581
Checksum:              325

/EX


_______________________________________________
Via the Keps mailing list courtesy of AMSAT-NA
http://amsat.org/mailman/listinfo/keps

--- ViaMAIL!/WC v1.60d
 * Origin: Chowdanet (401-724-4410) telnet://chowdanet.com  (1:323/120)